www.pogodaiklimat.ru
ПОГОДА в Даниловке
Время
(UTC), дата
00 5.12
03 5.12
06 5.12
09 5.12
12 5.12
15 5.12
18 5.12
21 5.12
00 6.12
03 6.12
06 6.12
09 6.12
12 6.12
15 6.12
18 6.12
21 6.12
00 7.12
03 7.12
06 7.12
09 7.12
12 7.12
15 7.12
18 7.12
21 7.12
00 8.12
03 8.12
06 8.12
09 8.12
12 8.12
15 8.12
18 8.12
21 8.12
00 9.12
03 9.12
06 9.12
09 9.12
12 9.12
15 9.12
18 9.12
21 9.12
00 10.12
03 10.12
06 10.12
09 10.12
12 10.12
15 10.12
18 10.12
21 10.12
00 11.12
03 11.12
06 11.12
09 11.12
12 11.12
15 11.12
18 11.12
21 11.12
Ветер
(напр.,м/с)
Видим. Явления Облачность Т
(С)
Тd
(С)
f
(%)
Тe
(С)
Тes
(С)
Комфортность P
(гПа)
Po
(гПа)
Тmin
(С)
Tmax
(С)
R
(мм)
R24
(мм)
S
(см)
ЮВ 5 20 км 10/10 600 м
[Sc]
-5.3 -8.3 79 -12 -12 1020.1 1006.9
Ю 5
{11}
20 км ясно -4.9 -7.4 83 -12 -12 1018.3 1005.1 -8.1 4
ЮЗ 5
{10}
20 км 10/10 600 м
[Sc]
-3.2 -5.5 84 -10 -10 1018.4 1005.3
ЮЗ 4
{10}
2000 м в посл. час переохл. осадки (гололёд) [диам. гололёда 0 мм] 10/10 300 м
[St]
-2.5 -3.8 91 -9 -9 1018.6 1005.6
ЮЗ 3 4000 м слаб. ливневой снег {морось} [диам. гололёда 0 мм] 10/10 300 м
[Cb calv]
-1.6 -3.1 89 -7 -7 1019.5 1006.5
ЮЗ 4 4000 м слаб. ливневой снег 10/10 300 м
[Cb calv]
-1.2 -2.5 91 -7 -7 1020.5 1007.5 -1.2 0.0
ЮЗ 3 4000 м слаб. ливневой снег 10/10 300 м
[Cb calv]
-0.8 -1.9 92 -6 -6 1021.5 1008.5
ЮВ 4 20 км {ливн. осадки} 10/10 600 м
[Sc]
-0.6 -1.8 92 -6 -6 1021.5 1008.5
Ю 5 20 км {ливн. осадки} 10/10 600 м
[Sc]
0.0 -1.3 91 -6 -6 1021.1 1008.2
Ю 4
{10}
4000 м слаб. морось 10/10 300 м
[St]
+0.2 -0.6 94 -5 -5 1020.3 1007.4 -1.2 0.0 4
З 5-10
{11}
20 км {морось} 10/10 600 м
[Sc]
+0.6 -0.4 93 -5 -5 1021.3 1008.3
ЮВ 2
{10}
20 км 8/8 600 м
[Sc]
+1.8 -0.9 82 -1 -1 1021.4 1008.5
ЮЗ 5-10
{10}
20 км ясно +2.6 -1.7 73 -3 -2 1020.8 1007.9
Ю 2
{10}
20 км ясно +0.7 -2.1 82 -3 -3 1021.0 1008.1 +2.7 0.0
Ю 3 20 км 10/0
[Cs]
-0.2 -2.6 84 -5 -5 1021.0 1008.0
ЮЗ 5
{10}
20 км 10/0
[Cs]
-0.2 -3.6 78 -6 -6 1020.9 1007.9
В 3 20 км ясно -1.1 -3.0 87 -6 -6 1020.7 1007.7
ЮВ 5
{11}
20 км 10/10 600 м
[Sc]
+0.6 -1.0 89 -5 -5 1020.2 1007.3 -1.6 3
Ю 2 20 км 10/10 600 м
[Sc]
+1.8 -0.8 83 -1 -1 1021.1 1008.2
Ю 4 20 км 9/9 600 м
[Sc]
+2.4 -1.1 78 -2 -2 1020.9 1008.1
ЮЗ 5
{10}
20 км 9/9 600 м
[Sc]
+2.8 -0.6 78 -2 -2 1020.3 1007.5
ЮЗ 2 20 км 10/10 600 м
[Sc]
+2.9 -0.5 78 0 0 1020.7 1007.9 +3.0
Ю 3 20 км 10/10 600 м
[Sc]
+1.8 -0.8 83 -2 -2 1021.1 1008.2
ЮВ 3 20 км 10/10 600 м
[Sc]
+1.0 -0.4 90 -4 -4 1021.2 1008.3
Ю 3 1000 м дымка 10/10 600 м
[Sc]
-0.2 -0.6 97 -5 -5 1020.8 1007.8
В 2 500 м туман [диам. гололёда 0 мм] ясно -1.2 -1.6 97 -5 -5 1020.0 1007.0 -1.9 <0.5
ЮВ 1 4000 м дымка {туман} [диам. гололёда 0 мм] 9/9 600 м
[Sc]
-0.5 -0.9 97 -3 -3 1019.7 1006.7
ЮВ 1 4000 м дымка [диам. гололёда 0 мм] 10/10 600 м
[Sc]
+1.9 +1.0 94 0 0 1018.5 1005.6
Ю 2 4000 м дымка [диам. гололёда 0 мм] 10/10 600 м
[Sc]
+2.6 +1.7 94 -1 -1 1017.1 1004.3
Ю 2 50 м слаб. морось {туман} туман ?/? +1.9 +1.3 96 -2 -2 1017.4 1004.5 +2.6 0.0
Ю 2 200 м туман ?/? +1.8 +1.4 97 -2 -2 1017.2 1004.4
ЮЗ 2 500 м туман ?/? +1.5 +1.1 97 -2 -2 1017.6 1004.8
ЮЗ 2 500 м туман ?/? +0.3 -0.1 97 -4 -4 1017.8 1004.9
Ю 1 500 м туман ?/? -0.4 -0.7 98 -3 -3 1018.7 1005.7 -0.4 0.0
Ю 1 200 м туман ?/? -0.1 -0.5 97 -2 -2 1019.7 1006.7
Ю 1 2000 м дымка {туман} 10/10 300 м
[St]
+0.6 +0.3 98 -2 -2 1020.3 1007.3
Ю 2 1000 м дымка {туман} 10/10 300 м
[St]
+1.1 +0.7 97 -3 -3 1020.2 1007.3
Ю 2 200 м туман ?/? +0.3 -0.1 97 -4 -4 1021.0 1008.0 +1.2
ЮВ 2 500 м туман [диам. гололёда 0 мм] 10/10 600 м
[Sc]
-1.3 -1.6 98 -5 -5 1021.9 1008.8
Ю 1 2000 м дымка {туман} [диам. гололёда 1 мм] 10/10 600 м
[Sc]
-2.6 -3.0 97 -5 -5 1022.3 1009.2
Ю 1 500 м туман [диам. гололёда 1 мм] 10/10 600 м
[Sc]
-2.1 -2.5 97 -5 -5 1022.4 1009.3
Ю 1 500 м туман [диам. гололёда 1 мм] 10/10 600 м
[Sc]
-2.2 -2.7 96 -5 -5 1022.2 1009.1 -2.6 0.0
ЮВ 1 20 км {туман} [диам. гололёда 1 мм] 10/5 600 м
[Sc Cs]
-1.2 -1.6 97 -4 -3 1022.9 1009.9
Ю 1 20 км [диам. гололёда 0 мм] 10/10 600 м
[Sc]
+0.4 0.0 97 -2 -2 1022.6 1009.7
Ю 2 500 м туман [диам. гололёда 0 мм] ?/? +0.3 -0.1 97 -4 -4 1022.7 1009.7
Ю 1 200 м туман ?/? -0.7 -1.0 98 -3 -3 1023.2 1010.2 +0.9
Ю 1 200 м слаб. переохл. морось (гололёд) {туман} [диам. гололёда 0 мм] ?/? -1.0 -1.3 98 -3 -3 1023.5 1010.4
Ю 1 200 м слаб. переохл. морось (гололёд) {туман} [диам. гололёда 1 мм] ?/? -1.0 -1.3 98 -3 -3 1023.5 1010.5
ЮЗ 1 200 м слаб. переохл. морось (гололёд) {туман} [диам. гололёда 1 мм] ?/? -1.2 -1.5 98 -4 -4 1023.1 1010.0
ЮЗ 1 200 м слаб. переохл. морось (гололёд) {туман} [диам. гололёда 2 мм] ?/? -1.5 -1.8 98 -4 -4 1023.0 1009.9 -1.6 0.0
ЮЗ 1 2000 м дымка {туман} [диам. гололёда 2 мм] 10/10 300 м
[St]
-1.4 -1.6 99 -4 -4 1023.3 1010.3 -1.7
СЗ 1 2000 м в посл. час переохл. осадки (гололёд) {морось} [диам. гололёда 2 мм] 10/10 300 м
[St]
-1.5 -1.7 99 -4 -4 1022.8 1009.8
Ю 1 2000 м дымка [диам. гололёда 1 мм] 10/10 300 м
[St]
-0.9 -1.2 98 -3 -3 1022.4 1009.3
СЗ 1 2000 м дымка [диам. гололёда 1 мм] 10/10 300 м
[St]
-1.5 -1.9 97 -4 -4 1023.3 1010.2 -0.9 0.0
С 2 2000 м дымка [диам. гололёда 1 мм] 10/10 300 м
[St]
-2.1 -2.4 98 -6 -6 1024.0 1010.9
С 1 4000 м дымка [диам. гололёда 1 мм] 10/10 300 м
[St]
-1.4 -1.8 97 -4 -4 1024.6 1011.5
Местоположение метеостанции Даниловка (Волгоградская область, Россия): широта 50.37 долгота 44.12 высота над уровнем моря 102 м.
В архиве по умолчанию представлена погода в Даниловке за последнюю неделю. Архивные данные за месяц целиком и за предыдущие месяцы, начиная с января 2011 года, Вы можете получить, выбрав интересующий диапазон дат из раскрывающегося списка и нажав кнопку "Найти!".
*Определитесь, кто Вы:
Внимание! Время в таблицах - всемирное. Для получения местного времени необходимо прибавить поправку, которая равна 3 ч.
Смотрите также архив погоды в соседних городах и на ближайших метеорологических станциях:
Партнеры нашего сайта:      
Пояснения к столбцам:
  • Ветер - указаны скорость ветра в м/с - средняя за 10 мин, порывы в срок и между сроками (в фигурных скобках) и направление, откуда дует ветер: С - северный,
  • СВ - северо-восточный, В - восточный, ЮВ - юго-восточный, Ю - южный, ЮЗ - юго-западный, З - западный, СЗ - северо-западный.
  • Видимость - горизонтальная дальность видимости в метрах или километрах. При видимости от 1 до 10 км при отсутствии осадков обычно наблюдается дымка, при ухудшении видимости до 1 км и менее - туман. В сухую погоду видимость может ухудшаться дымом, пылью или мглою.
  • Явления - указаны атмосферные явления, наблюдавшиеся в срок или в последний час перед сроком; фигурными скобками обозначены явления, наблюдавшиеся между сроками (за 1-3 часа до срока); квадратными скобками обозначены град или гололедные отложения с указанием их диаметра в мм.
  • Облачность - указаны через наклонную черту общая и нижняя облачность в баллах и высота нижней границы облаков в метрах; квадратными скобками обозначены формы облаков: Ci - перистые, Cs - перисто-слоистые, Cc - перисто-кучевые, Ac - высококучевые, As - высокослоистые, Sc - слоисто-кучевые, Ns - слоисто-дождевые, Cu - кучевые, Cb - кучево-дождевые. Подробнее классификацию облаков см. в Атласе облаков (PDF).
  • T - Температура воздуха - температура, измеренная на высоте 2 м над землей.
  • Td - Температура точки росы - температура, при понижении до которой содержащийся в воздухе водяной пар достигнет насыщения.
  • f - Относительная влажность воздуха - влажноcть воздуха, измеренная на высоте 2 м над землей.
  • Te - Эффективная температура - температура, которую ощущает одетый по сезону человек в тени. Характеристика душности погоды. При расчете учитывается влияние влажности воздуха и скорости ветра на теплоощущения человека.
  • Tes - Эффективная температура на солнце - температура, которую ощущает человек, с поправкой на солнечный нагрев. Характеристика знойности погоды. Зависит от высоты солнца над горизонтом, облачности и скорости ветра. Ночью, в пасмурную погоду, а также при ветре 12 м/с и более поправка равна нулю.
  • P - Атмосферное давление - приведенное к уровню моря атмосферное давление.
  • Po - Атмосферное давление - измеренное на уровне метеостанции атмосферное давление.
  • Tmin - Минимальная температура - минимум температуры воздуха на высоте 2 м над землей.
  • Tmax - Максимальная температура - максимум температуры воздуха на высоте 2 м над землей.
  • R - Количество осадков - Количество выпавших осадков за период времени, мм. При наведении курсора мыши на число - период времени, за который выпало указанное количество осадков.
  • R24 - Количество осадков - Количество выпавших осадков за 24 часа, мм.
  • S - Снежный покров - Высота снежного покрова, см. При наведении курсора мыши на число - состояние снежного покрова и степень покрытия местности в баллах.